sat.trackr.live / text

‹ back to catalog

STARLINK-6221

NORAD 56484 · 2023-064AN

PAYLOAD ACTIVE UNKNOWN

§ Identity

Operator
Country
US
Launch date
2023-05-10
Launch site
AFWTR
Launch vehicle
Mass (kg)
RCS (m²)

Purposes: comms

External: N2YO · Heavens-Above · Gunter

§ Orbital elements

Epoch: 2026-05-25T03:30:04.906368Z

Period
96.11 min
Inclination
69.9987°
Eccentricity
0.0003094
Mean motion
14.98329924 rev/d
Perigee alt
569.9 km
Apogee alt
574.2 km
Semi-major
6,950.2 km
B*
2.1307e-5
RAAN
291.5995°
Arg perigee
267.0112°
Mean anomaly
93.0693°
Rev number
16,718

§ Raw data

STARLINK-62211 56484U 23064AN  26145.14589012  .00000161  00000+0  21307-4 0  99942 56484  69.9987 291.5995 0003094 267.0112  93.0693 14.98329924167186

JSON: /api/v1/satellites/56484 · /tle

For live sub-satellite position, see the globe view (requires WebGL).

§ Visibility from observer

Set your observer location to see the next 7 days of passes ≥ 10°. The values pass through the URL so the page stays shareable.

No JS? Fill the form by hand. The geolocation button needs JavaScript.